Tetuan, Morocco

1:17 AM WET on January 18, 2018 (GMT +0000)
Tetuan

Weather History for GMTN - September, 2012

Change the Weather History Date:

Friday, September 21, 2012

  Actual Average Record
Temperature  
Mean Temperature 76 °F -  
Max Temperature 81 °F 74 °F 83 °F (2016)
Min Temperature 69 °F 62 °F 55 °F (2000)
Cooling Degree Days 10    
Growing Degree Days 26 (Base 50)    
Moisture  
Dew Point 69 °F    
Average Humidity 84    
Maximum Humidity 94    
Minimum Humidity 63    
Precipitation  
Precipitation 0.00 in - - ()
Sea Level Pressure  
Sea Level Pressure 29.97 in    
Wind  
Wind Speed 6 mph ()    
Max Wind Speed 14 mph    
Max Gust Speed -    
Visibility 2.5 miles    
Events      
Averages and records for this station are not official NWS values.
T = Trace of Precipitation, MM = Missing Value Source: Averaged Metar Reports

Daily Weather History Graph

Daily Weather History Graph

Search for Another Location

Airport or City:

Trip Planner

Search our weather history database for the weather conditions in past years. The results will help you decide how hot, cold, wet, or windy it might be!

Date:

Astronomy

Sep. 21, 2012 Rise Set
Actual Time 7:08 AM WEST 7:19 PM WEST
Civil Twilight 6:43 AM WEST 7:44 PM WEST
Nautical Twilight 6:13 AM WEST 8:14 PM WEST
Astronomical Twilight 5:43 AM WEST 8:44 PM WEST
Moon 1:03 PM WEST (9/21) 11:18 PM WEST (9/21)
Length of Visible Light 13h 01m
Length of Day
12h 10m
Waxing Crescent, 35% of the Moon is Illuminated
Sep 21
Waxing Crescent
Sep 22
First Quarter
Sep 30
Full
Oct 8
Last Quarter
Oct 15
New

Hourly Weather History & Observations

Time (WEST) Temp. Heat Index Dew Point Humidity Pressure Visibility Wind Dir Wind Speed Gust Speed Precip Events Conditions
12:00 AM 73.4 °F - 69.8 °F 88% 29.98 in 1.7 mi NE 9.2 mph - N/A   Unknown
1:00 AM 72 °F - 70 °F 90% 29.99 in 2 mi ENE 9.2 mph - -  
1:00 AM 71.6 °F - 69.8 °F 94% 29.98 in 1.6 mi ENE 9.2 mph - N/A   Unknown
2:00 AM 71.6 °F - 69.8 °F 94% 29.98 in 1.7 mi NE 8.1 mph - N/A   Unknown
3:00 AM 71.6 °F - 69.8 °F 94% 29.95 in 1.7 mi NE 6.9 mph - N/A   Unknown
4:00 AM 72 °F - 69 °F 85% 29.96 in 2 mi NE 8.1 mph - -  
4:00 AM 71.6 °F - 68.0 °F 88% 29.95 in 1.9 mi NE 8.1 mph - N/A   Unknown
5:00 AM 71.6 °F - 68.0 °F 88% 29.95 in 1.9 mi ESE 4.6 mph - N/A   Unknown
6:00 AM 71.6 °F - 69.8 °F 94% 29.95 in - NE 6.9 mph - N/A   Unknown
7:00 AM 72 °F - 69 °F 88% 29.96 in 2 mi ESE 3.5 mph - -  
7:00 AM 71.6 °F - 69.8 °F 94% 29.95 in 1.8 mi ESE 3.5 mph - N/A   Unknown
8:00 AM 71.6 °F - 69.8 °F 94% 29.95 in 1.9 mi East 4.6 mph - N/A   Mostly Cloudy
9:00 AM 71.6 °F - 69.8 °F 94% 29.98 in 1.9 mi East 3.5 mph - N/A   Mostly Cloudy
10:00 AM 74 °F - 70 °F 82% 30.00 in 3 mi ENE 4.6 mph - -   Overcast
10:00 AM 75.2 °F - 69.8 °F 83% 29.98 in 3.1 mi ENE 4.6 mph - N/A   Mostly Cloudy
12:00 PM 78.8 °F - 69.8 °F 74% 29.98 in 3.1 mi ENE 6.9 mph - N/A   Mostly Cloudy
2:00 PM 80.6 °F 83.9 °F 69.8 °F 70% 29.98 in 3.1 mi East 9.2 mph - N/A   Mostly Cloudy
3:00 PM 78.8 °F - 69.8 °F 74% 29.98 in 3.1 mi East 11.5 mph - N/A   Mostly Cloudy
4:00 PM 79 °F - 69 °F 63% 29.98 in 3 mi East 13.8 mph - -   Mostly Cloudy
4:00 PM 78.8 °F - 68.0 °F 69% 29.98 in 3.1 mi East 13.8 mph - N/A   Scattered Clouds
5:00 PM 78.8 °F - 68.0 °F 69% 29.95 in 3.1 mi East 12.7 mph - N/A   Scattered Clouds
6:00 PM 75.2 °F - 68.0 °F 78% 29.95 in 3.1 mi ENE 9.2 mph - N/A   Partly Cloudy
7:00 PM 74 °F - 68 °F 76% 29.98 in 3 mi ENE 4.6 mph - -   Scattered Clouds
7:00 PM 73.4 °F - 68.0 °F 83% 29.95 in 3.1 mi ENE 4.6 mph - N/A   Partly Cloudy
8:00 PM 71.6 °F - 68.0 °F 88% 29.98 in 3.1 mi Variable 3.5 mph - N/A   Partly Cloudy
9:00 PM 71.6 °F - 68.0 °F 88% 29.98 in 3.1 mi East 3.5 mph - N/A   Partly Cloudy
10:00 PM 70 °F - 67 °F 89% 29.99 in 3 mi Calm Calm - -   Scattered Clouds
10:00 PM 69.8 °F - 68.0 °F 94% 29.98 in 3.1 mi Calm Calm - N/A   Partly Cloudy